STARLINK-5674, 55465

Orbit data source: Space-Track

STARLINK-5674, 55465 is a payload satellite owned by SpaceX/Seattle (US) in LEO that was launched on Thu, 02 Feb 2023 UTC via an FALCON 9 launch vehicle from the Air Force Eastern Test Range (AFETR). Payload-class satellites include a variety of spacecraft equipped with specific instruments for various scientific and technological missions. These include communications satellites like Starlink; space stations such as the ISS; scientific satellites like the Hubble; Earth observation satellites from companies like Planet Labs, Umbra, and HawkEye 360; GPS; miniature CubeSats for education and research; and military/defense satellites.

Loading next visibility...
Identifier
55465, 2023-015S
Orbit
LEO
Country
Flag of USUS
Related business
Manufacturer
SpaceX/Seattle
Mission
Operational Commercial Communications
Bus & Motor
STARLINK, Unknown motor
Mass
305 kg wet, ~290 kg dry
Launch date (UTC)
2023-02-02 (3 years ago)
Launch vehicle
FALCON 9
Launch site
Air Force Eastern Test Range (AFETR)
Object type
Payload
Rocket body
Debris
Shape & HBR
Box + 1 Pan, 10.1 m
Radar Cross Section
13.562 m², Large (>1 m²)

Expand to show TLE details & history
Last TLE update: 17 hours ago

TLE from 17 hours ago
0 STARLINK-5674
1 55465U 23015S   25352.17803672 -.00000651  00000-0 -33138-4 0  9993
2 55465  43.0038  48.8046 0001405 261.4868  98.5815 15.02533255158494
Epoch: 2025-12-18T04:16Z
TLE epoch observation values (Epoch: 2025-12-18T04:16:22.372Z)
Latitude
-0.00003°
Longitude
-102.32593°
Altitude
559.012 km
Speed
7.584 km/s
True Right ascension
03h 15m 13s
True Declination
0° 00' 00"
Sunlit
Object was in full shadow at epoch
Visualization orbit readout
Latitude
Unknown
Longitude
Unknown
Altitude
Unknown
Speed
Unknown
Apparent Right ascension
Unknown
Apparent Declination
Unknown
Sunlit
N/A
Visualization observer readout
Local Sidereal Time
20:08:11
Azimuth
Unknown
Elevation
Unknown
Doppler factor
Unknown
Orbital elements
Apogee altitude
561.986 km
Perigee altitude
560.036 km
Semi-major axis
6,939.148 km
Eccentricity
0.00014
Inclination
43.0038°
RAAN
48.8046°
Arg. of periapsis
261.4868°
True anomaly
98.59742°
Mean anomaly
98.5815°
Eccentric anomaly
98.58946°
Mean motion
3.75477 °/min
Orbital period
95.88 mins
BSTAR
-0.000033138
Loading maneuver chart data...
Computing Atmospheric mass density...
Loading historical data...
Loading historical data...
Loading historical data...
Loading historical data...
Loading historical data...
Loading historical data...
Loading historical data...

Documentation

Showing up to 5 results
|